Wind_Speed
4 5 3 5 6 7 8 12 19 20 17 11 13 18 19 10 11 12 13 15 16 16 15 23 30 30 33 31 36 36 33 30 31 28 26 28 26 29 31 32 38 35 38 35
5 6 2 4 4 6 11 16 19 12 5 13 19 17 6 11 12 12 11 17 18 18 17 25 34 37 34 29 34 35 33 30 29 28 29 27 29 32 31 32 36 39 40 40
4 4 3 2 7 8 13 10 11 14 18 17 15 11 3 13 9 12 12 15 18 21 21 22 31 36 30 28 32 33 35 33 28 28 30 33 35 32 27 29 33 34 39 43
7 2 1 5 6 3 10 7 11 18 19 15 16 9 5 13 6 12 13 16 19 23 25 24 32 35 35 32 34 35 34 34 30 28 23 21 24 29 33 32 31 33 40 40
2 2 3 4 4 2 4 11 13 20 22 14 3 6 3 11 8 15 16 17 21 26 27 27 31 36 40 34 38 36 36 33 35 31 26 22 19 25 33 33 32 34 37 41
2 1 2 1 2 3 8 9 21 9 5 5 9 5 8 6 4 11 16 21 26 29 28 29 38 39 36 36 39 36 35 36 34 34 33 27 23 23 29 34 30 29 36 39
1 1 1 2 2 2 8 10 7 5 3 6 8 10 8 8 7 12 18 23 28 28 25 26 27 33 37 39 42 39 36 37 38 37 35 32 25 23 24 30 29 28 26 33
4 4 3 2 0 1 2 2 3 7 6 16 15 7 3 9 8 13 18 24 25 25 25 27 28 35 37 40 40 42 38 39 38 37 37 34 31 20 21 24 29 33 27 34
5 5 2 4 1 1 5 5 3 4 2 6 6 5 10 7 14 16 22 25 25 27 27 29 33 38 39 42 41 43 43 42 39 36 37 36 31 23 18 22 26 29 32 34
3 4 3 5 1 5 3 4 2 2 4 7 10 19 8 14 16 25 29 27 27 29 30 29 31 41 44 42 43 44 44 42 40 36 35 36 32 30 24 21 24 26 30 30
5 4 4 1 9 7 4 4 2 0 4 4 7 9 6 13 12 27 27 27 28 30 29 29 30 41 41 42 38 38 39 41 39 36 35 36 34 31 26 24 22 19 28 33
6 4 4 4 8 8 9 8 7 4 5 8 8 14 12 4 22 23 25 26 28 31 30 29 30 36 36 42 45 43 43 44 45 45 44 39 36 31 28 27 25 22 23 31
8 4 2 2 2 3 7 8 6 6 5 14 6 8 8 21 24 25 26 27 27 31 32 31 27 27 36 39 39 40 40 39 40 42 42 42 34 30 27 28 27 25 22 30
4 5 10 11 8 2 5 11 13 14 7 8 18 26 28 22 24 26 28 28 29 28 29 29 28 27 35 38 39 39 40 40 40 40 40 39 38 35 36 35 28 25 26 28
4 6 8 13 15 12 16 18 17 20 20 12 18 20 24 22 21 26 27 28 28 28 32 31 31 28 35 37 38 39 41 41 40 39 39 39 39 38 43 38 29 27 28 29
6 3 1 4 12 14 17 18 19 17 19 22 22 28 19 20 19 23 27 27 26 28 32 34 33 32 30 39 40 43 41 43 39 41 39 39 39 39 39 38 37 30 29 29
8 5 3 7 2 5 12 21 21 11 9 15 15 19 17 22 20 20 26 24 26 28 29 31 33 30 38 40 42 40 45 44 43 43 32 36 36 37 35 37 34 28 25 25
10 7 2 4 0 7 2 7 1 12 12 14 16 17 15 21 22 19 18 20 25 26 29 29 28 40 45 45 44 41 43 43 41 41 31 32 33 34 33 33 32 27 24 23
6 6 4 4 4 9 9 6 6 5 8 14 11 13 17 17 21 20 17 18 22 26 27 32 40 43 46 43 43 44 41 40 38 37 36 32 31 32 31 30 30 24 23 24
10 10 6 3 4 5 1 7 6 1 8 11 8 13 15 15 15 18 25 25 26 36 37 39 44 46 41 41 41 40 39 38 35 37 41 41 31 31 31 30 26 29 25 28
6 6 14 10 7 8 12 9 4 1 1 7 8 9 9 9 9 20 21 24 30 31 39 44 42 39 41 41 40 37 38 34 39 42 42 40 38 28 28 30 26 26 25 25
9 9 6 8 6 12 11 8 8 2 7 8 6 6 9 12 16 18 18 20 25 31 39 40 37 42 44 41 38 38 35 42 42 42 40 38 36 30 25 24 25 24 23 22
7 8 7 11 8 4 14 7 8 4 4 3 3 5 7 13 14 15 17 20 23 32 34 36 37 43 43 42 40 38 43 44 46 43 38 35 32 29 24 22 22 17 19 16
9 6 5 6 11 15 10 13 3 5 5 2 2 4 5 11 14 16 16 17 20 30 32 34 37 37 41 46 45 40 43 46 43 40 37 32 26 23 22 21 19 16 13 12
4 10 10 9 13 8 13 13 10 7 5 3 2 3 6 8 11 12 15 17 24 29 33 33 32 35 41 45 47 44 47 46 42 37 35 30 26 21 20 19 16 18 21 20
6 8 7 7 9 8 6 8 10 10 7 5 2 3 5 6 10 14 13 21 24 27 30 32 35 36 41 45 43 44 48 47 43 37 33 33 32 13 14 16 16 24 27 25
Wind_Direction
27 325 333 13 332 287 296 297 304 311 329 339 325 317 331 81 86 71 51 29 13 4 5 357 356 353 349 353 355 349 345 341 342 335 335 324 300 262 243 238 233 230 218 206
313 288 35 305 296 305 309 305 308 307 323 334 318 322 74 110 80 58 46 17 12 4 355 352 352 347 346 345 350 348 344 340 339 340 328 328 320 300 257 236 235 233 221 212
259 309 358 326 304 320 310 309 317 304 317 296 331 301 111 125 75 43 38 14 10 6 353 345 347 345 340 339 341 339 335 331 331 334 343 336 329 320 296 236 228 230 218 210
268 341 298 298 286 324 299 354 311 312 321 312 339 286 322 181 49 25 16 8 2 356 351 347 344 345 340 332 336 330 330 327 324 327 328 342 323 311 308 291 232 224 226 222
270 236 277 286 345 326 329 330 307 302 294 311 294 240 205 231 356 4 3 357 353 350 346 341 339 335 329 326 331 323 324 318 321 315 314 319 318 314 306 301 286 217 215 217
298 350 289 345 92 58 322 329 308 293 282 251 132 351 252 338 32 1 356 354 348 344 336 333 332 330 325 318 323 317 312 313 310 313 304 309 313 319 314 304 296 265 209 205
305 129 97 8 193 190 359 350 319 307 276 281 170 327 308 102 44 14 358 351 338 333 331 325 326 324 320 319 318 314 305 306 303 307 302 301 307 312 316 306 303 275 248 195
237 218 211 35 199 339 113 167 239 278 302 295 296 220 174 141 20 9 356 341 329 330 327 321 321 319 316 316 312 310 303 300 297 299 299 293 296 300 310 319 318 305 273 224
182 240 136 36 270 293 149 219 37 269 210 279 255 239 192 40 351 348 337 334 330 330 325 323 319 315 313 311 308 308 304 300 294 292 296 288 285 286 295 307 307 315 305 290
171 260 194 140 34 51 265 109 164 182 279 289 283 298 271 353 341 337 337 334 333 328 324 323 318 315 313 312 310 308 303 301 295 291 288 283 281 283 289 299 300 301 313 305
160 237 152 176 201 208 161 178 146 7 251 264 295 290 27 341 341 335 330 331 330 322 321 315 314 316 320 317 323 331 327 322 315 296 285 279 276 272 281 286 282 295 300 306
174 177 218 258 311 256 231 197 179 197 225 236 286 277 301 281 339 328 325 327 324 318 319 318 319 318 325 321 315 315 312 310 307 304 310 289 274 268 270 277 283 296 292 301
179 200 228 190 163 167 202 188 191 226 247 238 243 259 206 334 322 325 325 327 322 319 322 320 322 325 322 319 315 314 312 308 310 310 306 301 308 294 284 281 279 279 293 296
178 204 233 257 303 137 201 202 213 205 221 260 233 271 290 313 322 325 325 327 322 320 318 323 322 321 320 319 315 314 312 310 307 304 303 300 299 297 289 283 275 275 290 300
215 234 242 258 272 264 262 259 244 231 237 247 271 279 286 307 326 321 320 322 319 325 326 326 323 322 321 317 316 314 309 306 303 299 296 294 293 294 294 296 289 279 283 296
194 228 266 269 262 259 258 258 251 237 242 248 262 273 286 321 316 322 321 324 327 326 324 323 321 320 321 318 316 314 311 307 306 299 288 288 289 287 285 290 279 278 276 290
176 184 170 277 87 316 272 243 240 224 216 235 251 263 320 310 319 324 318 328 329 323 321 321 320 319 318 319 314 313 311 312 305 296 286 284 282 281 283 277 283 263 266 282
169 158 168 272 152 251 358 146 101 243 239 245 264 292 302 316 314 315 314 332 326 325 323 321 318 317 319 317 317 314 312 309 308 306 292 285 281 276 278 276 277 263 274 268
154 153 214 237 213 319 281 228 182 211 256 247 266 298 314 318 311 309 340 337 324 321 317 316 316 315 318 318 319 315 312 312 311 307 305 291 286 275 274 268 272 277 275 269
192 203 204 171 233 255 323 158 136 251 281 143 313 310 318 330 321 317 335 331 327 322 318 322 319 321 320 322 321 316 316 314 311 310 311 304 283 274 270 267 269 265 271 265
168 197 219 217 243 275 255 182 141 242 308 286 322 303 315 307 299 306 315 317 320 316 317 320 323 320 322 324 324 321 318 314 313 308 307 305 304 267 262 264 265 266 266 260
169 184 201 207 212 262 182 124 200 260 306 304 305 306 299 295 306 310 315 318 319 321 324 326 328 322 323 327 330 325 320 318 315 312 307 302 298 292 264 260 265 255 250 261
199 211 178 196 205 239 187 211 213 196 253 241 268 310 311 304 307 312 317 320 321 321 324 326 329 323 324 329 334 326 324 324 321 314 306 299 293 289 272 258 255 258 259 252
229 183 225 173 232 236 211 222 252 202 210 178 243 291 304 296 310 316 319 321 323 325 326 329 329 327 323 331 333 331 329 328 323 316 312 307 294 290 287 250 240 245 255 254
183 155 221 246 258 247 250 249 249 183 169 189 232 298 296 301 307 318 317 318 323 324 326 331 329 329 324 330 331 334 335 333 330 326 324 322 312 284 275 269 246 234 241 237
179 199 198 231 230 230 241 172 163 179 199 198 230 281 274 300 313 320 313 319 325 327 332 332 329 332 328 332 331 338 340 339 337 338 338 332 331 282 272 271 249 241 246 247
Height
808 804 804 808 808 804 807 807 798 783 783 792 793 791 786 794 804 802 804 804 802 800 800 799 796 791 786 778 770 763 756 751 743 733 724 719 712 708 705 706 709 710 708 711
805 805 811 813 812 811 806 802 790 788 790 795 786 788 787 799 805 805 806 808 805 800 800 798 793 787 781 776 770 764 758 752 745 737 728 719 712 705 698 697 700 701 702 702
814 806 815 814 808 810 800 807 806 805 794 788 784 777 781 802 802 804 805 806 803 800 798 794 791 786 780 776 771 765 757 750 743 736 724 714 706 702 695 688 689 692 693 691
816 815 815 813 810 814 809 817 813 805 800 789 792 789 777 797 792 800 800 801 799 797 795 792 787 783 778 773 768 763 755 746 739 732 726 719 714 706 695 687 676 680 685 685
808 815 816 815 818 819 813 819 814 805 797 798 783 794 774 773 784 799 801 800 800 798 796 791 786 782 776 769 764 758 751 744 735 729 724 717 709 704 696 685 677 669 673 675
816 823 820 817 822 823 822 814 801 799 801 791 793 801 770 778 806 804 800 799 798 796 793 789 784 778 772 765 758 751 744 738 732 724 717 711 704 696 690 684 674 662 661 666
818 822 824 824 818 820 814 814 807 801 788 778 790 796 779 800 805 805 801 799 799 796 790 785 779 772 763 755 748 744 736 728 724 716 709 703 697 692 685 680 671 664 652 650
815 814 824 827 821 818 823 821 826 835 808 787 798 799 779 796 797 800 799 803 802 795 789 781 774 767 758 750 743 734 727 716 714 708 700 695 690 686 680 675 667 660 654 643
816 821 831 833 830 826 826 824 835 837 859 845 786 781 780 787 791 795 798 799 795 790 783 774 767 759 749 741 734 727 717 708 702 697 691 684 682 679 674 667 663 658 649 646
825 819 831 836 834 836 828 834 841 842 849 834 776 777 773 789 795 791 790 790 786 780 773 766 756 749 740 734 726 719 711 700 692 687 682 675 670 667 662 657 654 652 647 643
828 826 827 834 826 815 836 835 840 841 845 843 825 769 779 796 799 795 792 789 786 780 773 765 753 743 738 729 722 715 707 697 686 678 672 666 661 658 652 651 648 641 642 639
832 828 830 820 835 837 826 826 832 838 843 839 838 801 787 794 795 798 793 790 785 778 768 759 749 740 734 730 723 716 707 697 687 678 669 656 651 647 645 640 638 633 634 633
834 831 827 842 838 833 829 832 830 834 843 848 845 791 782 785 794 794 793 787 779 771 761 752 741 736 732 726 719 710 702 693 684 675 665 654 644 639 635 631 628 628 624 625
831 828 814 795 792 817 831 829 830 835 842 823 812 791 779 791 793 792 786 783 776 768 760 750 740 735 728 722 713 704 694 688 680 671 661 652 645 638 630 624 621 617 615 611
830 827 824 819 818 822 820 819 819 828 824 827 793 802 793 797 799 793 787 781 775 761 754 748 737 729 722 713 705 697 688 678 672 663 654 644 638 634 626 620 614 612 608 603
831 826 834 837 825 825 821 815 811 817 819 815 812 801 794 795 797 793 785 780 769 764 754 745 736 727 715 706 696 689 678 669 661 653 644 636 629 625 621 613 607 603 600 595
833 833 846 813 837 835 821 804 796 804 801 803 807 795 794 790 791 792 782 771 773 766 758 748 735 723 712 703 695 682 672 663 653 640 632 626 621 611 607 603 597 592 593 588
822 835 841 836 850 821 787 793 798 800 797 794 794 793 796 790 786 792 780 780 773 767 756 746 737 719 708 698 689 678 668 656 644 629 621 617 611 603 598 594 587 587 585 581
818 828 835 836 836 806 790 790 794 797 795 792 795 795 791 791 787 772 777 780 776 766 760 750 737 721 705 694 684 672 659 649 637 624 613 606 600 594 590 585 583 578 575 571
820 822 830 852 829 803 782 791 793 799 792 788 790 788 789 791 774 760 769 771 764 760 754 743 729 716 703 690 680 667 654 643 631 620 607 598 590 584 578 577 573 569 566 565
822 825 820 823 819 800 783 788 795 802 778 781 784 786 790 788 787 781 779 772 769 765 754 738 726 715 700 687 675 662 650 638 627 615 602 588 580 573 569 565 563 560 560 558
806 814 815 814 821 809 776 787 786 768 771 776 781 787 791 789 785 783 780 774 768 758 744 734 723 708 697 686 673 658 646 634 621 608 595 581 568 562 558 555 551 550 551 549
794 776 791 789 782 767 772 765 767 771 773 778 784 785 789 787 784 783 778 773 766 756 747 736 724 709 694 683 672 656 642 629 614 601 587 574 563 553 546 545 544 542 543 539
772 770 774 781 766 763 765 766 769 773 774 780 784 787 789 789 786 781 776 771 765 755 744 735 723 709 692 679 668 658 642 628 613 595 579 566 556 549 543 540 536 535 534 534
757 767 764 762 759 758 759 760 762 773 777 781 784 784 787 787 786 782 777 772 765 757 745 735 727 712 697 682 668 655 640 625 609 592 574 561 551 541 537 530 526 528 529 529
754 750 757 749 745 747 747 755 764 770 774 778 781 784 787 786 783 781 778 772 765 756 746 734 726 714 699 685 671 655 641 626 610 592 576 562 546 531 530 526 525 523 520 521